sat.trackr.live / text

‹ back to catalog

EDISON-1

NORAD 62610 · 2025-009B

PAYLOAD ACTIVE UNKNOWN

§ Identity

Operator
Country
DEN
Launch date
2025-01-14
Launch site
AFWTR
Launch vehicle
Mass (kg)
RCS (m²)

External: N2YO · Heavens-Above · Gunter

§ Orbital elements

Epoch: 2026-09-22T20:36:19.432800Z

Period
93.89 min
Inclination
97.3951°
Eccentricity
0.0004080
Mean motion
15.33692185 rev/d
Perigee alt
462.0 km
Apogee alt
467.6 km
Semi-major
6,842.9 km
B*
2.8541e-4
RAAN
348.3494°
Arg perigee
334.5282°
Mean anomaly
25.5759°
Rev number
9,391

§ Raw data

EDISON-11 62610U 25009B   26265.85855825  .00009222  00000+0  28541-3 0  99952 62610  97.3951 348.3494 0004080 334.5282  25.5759 15.33692185 93913

JSON: /api/v1/satellites/62610 · /tle

For live sub-satellite position, see the globe view (requires WebGL).

§ Visibility from observer

Set your observer location to see the next 7 days of passes ≥ 10°. The values pass through the URL so the page stays shareable.

No JS? Fill the form by hand. The geolocation button needs JavaScript.

§ Radio — SatNOGS DB

ModeDescriptionDownlinkUplink
BPSK S-band telemetry 2.256 GHz
FM Mode S - Transmitter (inactive) 2.245 GHz

2 transmitters · refreshed weekly from db.satnogs.org